CW8078 Weather Reports


time (UTC)temp
F
wind
direction
speed
knots
gust
knots
rain 1hr
in
rain 24hr
in
rain mn
in
humidity
%
barometer
mb
20260904211803 97 220 0.0 0.0 0.00 0.00 0.00 45 1009.8
20260904211302 97 220 0.0 0.0 0.00 0.00 0.00 45 1009.8
20260904210802 97 220 0.0 0.0 0.00 0.00 0.00 44 1009.9
20260904210302 98 204 0.0 0.9 0.00 0.00 0.00 43 1010.0
20260904204803 97 163 0.0 0.0 0.00 0.00 0.00 43 1010.1
20260904204303 97 134 0.0 0.0 0.00 0.00 0.00 43 1010.2
20260904203803 97 136 0.0 0.0 0.00 0.00 0.00 43 1010.2
20260904203303 97 146 0.0 0.0 0.00 0.00 0.00 42 1010.3
20260904201803 98 150 0.0 0.0 0.00 0.00 0.00 43 1010.5
20260904201302 99 86 0.0 0.0 0.00 0.00 0.00 44 1010.5
20260904200802 99 192 0.0 0.0 0.00 0.00 0.00 43 1010.6
20260904200302 99 165 0.0 0.0 0.00 0.00 0.00 43 1010.7
20260904194802 100 175 0.0 0.0 0.00 0.00 0.00 44 1011.0
20260904193802 99 119 0.0 0.0 0.00 0.00 0.00 43 1010.9
20260904191803 100 205 0.0 0.0 0.00 0.00 0.00 43 1011.1
20260904190802 99 326 0.0 0.0 0.00 0.00 0.00 45 1011.1
20260904190302 99 248 0.0 0.0 0.00 0.00 0.00 47 1011.2
20260904184803 97 0 0.0 0.0 0.00 0.00 0.00 46 1011.3
20260904184303 98 116 0.0 0.0 0.00 0.00 0.00 47 1011.4
20260904183803 98 94 0.0 0.0 0.00 0.00 0.00 50 1011.4
20260904183302 98 6 0.0 0.0 0.00 0.00 0.00 47 1011.5
20260904181803 98 179 0.0 0.0 0.00 0.00 0.00 45 1011.6
20260904180803 99 232 0.0 0.0 0.00 0.00 0.00 47 1011.7
20260904180303 98 225 0.0 0.0 0.00 0.00 0.00 48 1011.8
20260904174802 98 142 0.0 0.0 0.00 0.00 0.00 50 1012.0
20260904174302 97 171 0.0 0.0 0.00 0.00 0.00 49 1012.0
20260904173802 97 329 0.0 0.0 0.00 0.00 0.00 52 1012.0
20260904173303 97 329 0.0 0.0 0.00 0.00 0.00 50 1012.1
20260904171803 96 229 0.0 0.0 0.00 0.00 0.00 52 1012.3
20260904171303 96 192 0.0 0.0 0.00 0.00 0.00 50 1012.3
20260904170802 95 192 0.0 0.0 0.00 0.00 0.00 54 1012.4
20260904170305 95 150 0.0 0.9 0.00 0.00 0.00 53 1012.4
20260904164802 93 224 0.0 0.0 0.00 0.00 0.00 57 1012.5
20260904164302 93 231 0.0 0.0 0.00 0.00 0.00 59 1012.6
20260904163803 92 182 0.0 0.0 0.00 0.00 0.00 58 1012.6
20260904163302 92 137 0.0 0.0 0.00 0.00 0.00 61 1012.6
20260904161802 91 175 0.0 0.0 0.00 0.00 0.00 62 1012.7
20260904161303 91 175 0.0 0.9 0.00 0.00 0.00 61 1012.8
20260904160803 90 175 0.0 0.0 0.00 0.00 0.00 60 1012.7
20260904160302 90 175 0.0 0.0 0.00 0.00 0.00 63 1012.7
20260904154803 89 175 0.0 0.0 0.00 0.00 0.00 65 1012.7
20260904154302 88 175 0.0 0.0 0.00 0.00 0.00 66 1012.7
20260904153803 88 175 0.0 0.0 0.00 0.00 0.00 67 1012.7
20260904153302 88 175 0.0 0.0 0.00 0.00 0.00 68 1012.7
20260904151802 86 136 0.0 0.0 0.00 0.00 0.00 68 1012.7
20260904151303 86 121 0.0 0.0 0.00 0.00 0.00 68 1012.7
20260904150303 86 121 0.0 0.0 0.00 0.00 0.00 70 1012.6
20260904144303 84 163 0.0 0.0 0.00 0.00 0.00 72 1012.5
20260904143802 84 163 0.0 0.0 0.00 0.00 0.00 73 1012.4
20260904143303 84 163 0.0 0.0 0.00 0.00 0.00 74 1012.4
20260904141802 83 163 0.0 0.0 0.00 0.00 0.00 76 1012.3
20260904140303 81 129 0.0 0.0 0.00 0.00 0.00 79 1012.3
20260904134802 80 129 0.0 0.0 0.00 0.00 0.00 81 1012.3
20260904134302 79 129 0.0 0.0 0.00 0.00 0.00 82 1012.3
20260904133803 79 129 0.0 0.0 0.00 0.00 0.00 83 1012.4
20260904133303 78 129 0.0 0.0 0.00 0.00 0.00 84 1012.3
20260904131303 75 129 0.0 0.0 0.00 0.00 0.00 89 1012.3
20260904130803 74 129 0.0 0.0 0.00 0.00 0.00 89 1012.2
20260904130302 74 129 0.0 0.0 0.00 0.00 0.00 90 1012.2
20260904124302 73 129 0.0 0.0 0.00 0.00 0.00 90 1012.1
20260904123802 73 129 0.0 0.0 0.00 0.00 0.00 90 1012.1
20260904123303 73 129 0.0 0.0 0.00 0.00 0.00 89 1012.0
20260904120803 73 129 0.0 0.0 0.00 0.00 0.00 89 1011.8
20260904120303 73 129 0.0 0.0 0.00 0.00 0.00 88 1011.8
20260904114303 74 129 0.0 0.0 0.00 0.00 0.00 88 1011.6
20260904113303 74 129 0.0 0.0 0.00 0.00 0.00 87 1011.5
20260904111802 74 129 0.0 0.0 0.00 0.00 0.00 86 1011.4
20260904111303 74 129 0.0 0.0 0.00 0.00 0.00 86 1011.4
20260904110803 75 129 0.0 0.0 0.00 0.00 0.00 86 1011.3
20260904110303 75 129 0.0 0.0 0.00 0.00 0.00 85 1011.3
20260904104802 75 129 0.0 0.0 0.00 0.00 0.00 85 1011.1
20260904104302 74 129 0.0 0.0 0.00 0.00 0.00 86 1011.1
20260904103802 74 129 0.0 0.0 0.00 0.00 0.00 87 1011.1
20260904101303 74 129 0.0 0.0 0.00 0.00 0.00 87 1011.0
20260904100802 74 129 0.0 0.0 0.00 0.00 0.00 88 1011.0
20260904100303 74 129 0.0 0.0 0.00 0.00 0.00 88 1011.0
20260904093803 74 129 0.0 0.0 0.00 0.00 0.00 87 1010.8
20260904093302 74 129 0.0 0.0 0.00 0.00 0.00 87 1010.7
20260904091803 74 129 0.0 0.0 0.00 0.00 0.00 87 1010.6
20260904084803 75 129 0.0 0.0 0.00 0.00 0.00 87 1010.4
20260904084303 75 129 0.0 0.0 0.00 0.00 0.00 87 1010.4
20260904083802 75 129 0.0 0.0 0.00 0.00 0.00 87 1010.4
20260904081802 75 129 0.0 0.0 0.00 0.00 0.00 86 1010.3
20260904080803 75 129 0.0 0.0 0.00 0.00 0.00 86 1010.4
20260904080303 76 129 0.0 0.0 0.00 0.00 0.00 86 1010.4
20260904074803 76 129 0.0 0.0 0.00 0.00 0.00 86 1010.4
20260904074302 76 129 0.0 0.0 0.00 0.00 0.00 86 1010.4
20260904073803 76 129 0.0 0.0 0.00 0.00 0.00 85 1010.3
20260904073303 76 129 0.0 0.0 0.00 0.00 0.00 85 1010.3
20260904071803 77 129 0.0 0.0 0.00 0.00 0.00 85 1010.3
20260904071303 77 129 0.0 0.0 0.00 0.00 0.00 85 1010.2
20260904070803 77 129 0.0 0.0 0.00 0.00 0.00 84 1010.2
20260904070303 77 129 0.0 0.0 0.00 0.00 0.00 85 1010.1
20260904064803 78 129 0.0 0.0 0.00 0.00 0.00 84 1010.0
20260904064303 78 129 0.0 0.0 0.00 0.00 0.00 83 1010.1
20260904063803 78 129 0.0 0.0 0.00 0.00 0.00 83 1010.0
20260904063303 78 129 0.0 0.0 0.00 0.00 0.00 81 1010.0
20260904061803 79 129 0.0 0.0 0.00 0.00 0.00 82 1010.0
20260904061303 79 129 0.0 0.0 0.00 0.00 0.00 81 1010.0
20260904060803 79 129 0.0 0.0 0.00 0.00 0.00 80 1010.0
20260904054803 80 129 0.0 0.0 0.00 0.00 0.00 79 1010.0
20260904054303 80 129 0.0 0.0 0.00 0.00 0.00 79 1009.9
20260904053803 80 129 0.0 0.0 0.00 0.00 0.00 80 1009.9
20260904053303 80 129 0.0 0.0 0.00 0.00 0.00 79 1009.8
20260904051803 81 129 0.0 0.0 0.00 0.00 0.00 76 1009.7
20260904051303 81 129 0.0 0.0 0.00 0.00 0.00 76 1009.8
20260904050804 81 129 0.0 0.0 0.00 0.00 0.00 76 1009.7
20260904050303 82 129 0.0 0.0 0.00 0.00 0.00 75 1009.7
20260904044803 83 129 0.0 0.0 0.00 0.00 0.00 73 1009.8
20260904044303 83 129 0.0 0.0 0.00 0.00 0.00 72 1009.7
20260904043303 84 129 0.0 0.0 0.00 0.00 0.00 72 1009.8
20260904041303 84 138 0.0 0.0 0.00 0.00 0.00 71 1009.7
20260904040803 84 151 0.0 0.0 0.00 0.00 0.00 71 1009.8
20260904040303 84 153 0.0 0.0 0.00 0.00 0.00 71 1009.9
20260904034803 85 132 0.0 0.0 0.00 0.00 0.00 70 1009.9
20260904034303 85 98 0.0 0.0 0.00 0.00 0.00 70 1009.9
20260904033303 85 160 0.0 0.0 0.00 0.00 0.00 70 1009.8
20260904031803 85 159 0.0 0.0 0.00 0.00 0.00 70 1009.8
20260904031303 85 143 0.0 0.0 0.00 0.00 0.00 70 1009.8
20260904030803 85 164 0.0 0.0 0.00 0.00 0.00 69 1009.8
20260904030303 85 152 0.0 0.0 0.00 0.00 0.00 69 1009.8
20260904024803 85 128 0.0 0.0 0.00 0.00 0.00 69 1009.8
20260904024303 85 355 0.0 0.0 0.00 0.00 0.00 69 1009.7
20260904023803 85 355 0.0 0.0 0.00 0.00 0.00 69 1009.6
20260904023304 85 355 0.0 0.0 0.00 0.00 0.00 70 1009.6
20260904021803 85 355 0.0 0.0 0.00 0.00 0.00 70 1009.5
20260904021303 85 355 0.0 0.0 0.00 0.00 0.00 70 1009.5
20260904020803 85 355 0.0 0.0 0.00 0.00 0.00 70 1009.4
20260904014803 86 355 0.0 0.0 0.00 0.00 0.00 70 1009.2
20260904014303 86 355 0.0 0.0 0.00 0.00 0.00 70 1009.1
20260904013303 86 355 0.0 0.0 0.00 0.00 0.00 70 1009.0
20260904011803 86 355 0.0 0.0 0.00 0.00 0.00 70 1009.0
20260904011303 86 355 0.0 0.0 0.00 0.00 0.00 70 1008.9
20260904010803 86 355 0.0 0.0 0.00 0.00 0.00 70 1008.9
20260904003303 88 355 0.0 0.0 0.00 0.00 0.00 68 1008.9
20260904001803 89 355 0.0 0.0 0.00 0.00 0.00 66 1008.8
20260904001303 89 355 0.0 0.0 0.00 0.00 0.00 65 1008.9
20260904000803 89 355 0.0 0.0 0.00 0.00 0.00 64 1008.8
20260904000303 89 355 0.0 0.0 0.00 0.00 0.00 63 1008.9
20260903234804 90 355 0.0 0.0 0.00 0.00 0.00 62 1008.9
20260903234303 90 355 0.0 0.0 0.00 0.00 0.00 62 1008.8
20260903233803 91 355 0.0 0.0 0.00 0.00 0.00 60 1008.8
20260903233303 91 355 0.0 0.0 0.00 0.00 0.00 60 1008.8
20260903231803 92 355 0.0 0.0 0.00 0.00 0.00 57 1008.8
20260903231304 92 152 0.0 0.0 0.00 0.00 0.00 57 1008.8
20260903230803 92 152 0.0 0.0 0.00 0.00 0.00 56 1008.8
20260903230304 92 152 0.0 0.0 0.00 0.00 0.00 55 1008.8
20260903224304 93 152 0.0 0.0 0.00 0.00 0.00 54 1008.6
20260903223803 94 98 0.0 0.0 0.00 0.00 0.00 55 1008.7
20260903223303 94 98 0.0 0.0 0.00 0.00 0.00 55 1008.7
20260903221803 95 98 0.0 0.0 0.00 0.00 0.00 49 1008.7
20260903221304 96 98 0.0 0.0 0.00 0.00 0.00 48 1008.7
20260903220803 96 98 0.0 0.0 0.00 0.00 0.00 48 1008.8
20260903220304 96 144 0.0 0.0 0.00 0.00 0.00 47 1008.8
20260903214804 96 177 0.0 0.0 0.00 0.00 0.00 48 1008.8
20260903214304 96 177 0.0 0.0 0.00 0.00 0.00 48 1008.8
20260903213804 96 193 0.0 0.9 0.00 0.00 0.00 48 1008.9